Location: Caltech
(34.1382°N, 118.1253°W)
Time: 21:55:27
(UTC-08:00)

Cosmos 1606 - Visible Passes

Search period start: 06 February 2016 00:00
Search period end: 16 February 2016 00:00
Orbit: 510 x 535 km, 82.5° (Epoch: 06 February)

Date Brightness Start Highest point End Pass type
(mag) Time Alt. Az. Time Alt. Az. Time Alt. Az.
06 Feb 4.3 18:05:17 10° NE 18:07:28 15° ENE 18:09:38 10° ESE visible
06 Feb 4.8 19:40:06 10° NNW 19:43:19 26° W 19:46:30 10° SSW visible
07 Feb 4.5 17:52:52 10° NE 17:54:35 13° ENE 17:56:17 10° ESE visible
07 Feb 4.6 19:27:08 10° NNW 19:30:30 30° W 19:33:51 10° SSW visible
08 Feb 4.3 19:14:11 10° NNW 19:17:41 35° W 19:21:09 10° SSW visible
09 Feb 4.0 19:01:14 10° NNW 19:04:51 42° W 19:08:25 10° SSW visible
10 Feb 3.6 18:48:19 10° NNW 18:52:01 49° W 18:55:40 10° S visible
11 Feb 3.3 18:35:25 10° NNW 18:39:10 59° W 18:42:53 10° S visible
12 Feb 3.0 18:22:31 10° NNW 18:26:18 71° W 18:30:04 10° S visible
13 Feb 2.7 18:09:38 10° N 18:13:27 84° W 18:17:14 10° S visible
14 Feb 2.6 17:56:46 10° N 18:00:34 82° E 18:04:21 10° S visible
15 Feb 4.7 06:08:43 10° SSE 06:12:18 36° E 06:15:53 10° NNE visible
